BKB7 CZPC-CYQL

Flight info

Callsign BKB7
Flight time 0h 20m
Altitude 9000
Route RAGAB
Aircraft AT46/M-SDFGIRY/S

Departure

Time 2026-04-28 22:07
Airport Pincher Creek Airport (CZPC)

Arrival

Time 2026-04-28 22:27
Airport Lethbridge County Airport (CYQL)
Time Latitude Longitude Altitude Speed Heading
2026-04-28 21:56 49.52222 -113.99982 3906 ft 0 kts 180°
2026-04-28 22:01 49.52217 -113.99980 3906 ft 0 kts 166°
2026-04-28 22:01 49.52211 -113.99975 3906 ft 1 kts 145°
2026-04-28 22:02 49.52208 -113.99974 3902 ft 1 kts 180°
2026-04-28 22:02 49.52207 -113.99976 3903 ft 0 kts 206°
2026-04-28 22:03 49.52203 -113.99983 3904 ft 4 kts 236°
2026-04-28 22:03 49.52171 -114.00028 3904 ft 7 kts 194°
2026-04-28 22:03 49.52136 -113.99981 3907 ft 11 kts 91°
2026-04-28 22:03 49.52135 -113.99834 3908 ft 16 kts 90°
2026-04-28 22:04 49.52135 -113.99645 3907 ft 19 kts 91°
2026-04-28 22:04 49.52135 -113.99431 3906 ft 21 kts 92°
2026-04-28 22:04 49.52136 -113.99200 3908 ft 22 kts 90°
2026-04-28 22:04 49.52134 -113.98969 3907 ft 21 kts 90°
2026-04-28 22:05 49.52137 -113.98738 3907 ft 22 kts 89°
2026-04-28 22:05 49.52136 -113.98501 3907 ft 21 kts 90°
2026-04-28 22:05 49.52125 -113.98339 3906 ft 12 kts 137°
2026-04-28 22:05 49.52065 -113.98338 3916 ft 10 kts 199°
2026-04-28 22:06 49.52045 -113.98406 3916 ft 5 kts 271°
2026-04-28 22:06 49.52045 -113.98413 3916 ft 0 kts 271°
2026-04-28 22:06 49.52046 -113.98543 3914 ft 40 kts 270°
2026-04-28 22:07 49.52049 -113.99307 3919 ft 101 kts 270°
2026-04-28 22:07 49.52037 -114.00617 4038 ft 134 kts 273°
2026-04-28 22:07 49.52021 -114.02065 4567 ft 137 kts 268°
2026-04-28 22:07 49.52199 -114.03501 5199 ft 144 kts 306°
2026-04-28 22:08 49.53096 -114.04069 5736 ft 149 kts
2026-04-28 22:08 49.53972 -114.03145 6063 ft 168 kts 56°
2026-04-28 22:08 49.54119 -114.01314 6340 ft 186 kts 104°
2026-04-28 22:08 49.53780 -113.99343 6610 ft 195 kts 92°
2026-04-28 22:09 49.53804 -113.97199 6874 ft 208 kts 83°
2026-04-28 22:09 49.54069 -113.94890 6911 ft 230 kts 70°
2026-04-28 22:09 49.54918 -113.92813 7204 ft 224 kts 44°
2026-04-28 22:09 49.55921 -113.90927 7223 ft 240 kts 62°
2026-04-28 22:10 49.56197 -113.88314 7115 ft 260 kts 95°
2026-04-28 22:10 49.55837 -113.85522 7059 ft 270 kts 103°
2026-04-28 22:10 49.55401 -113.82684 7027 ft 274 kts 102°
2026-04-28 22:10 49.55004 -113.79811 7009 ft 273 kts 100°
2026-04-28 22:11 49.54674 -113.76958 7002 ft 276 kts 98°
2026-04-28 22:11 49.54377 -113.74017 7022 ft 279 kts 97°
2026-04-28 22:11 49.54089 -113.71070 7009 ft 276 kts 98°
2026-04-28 22:11 49.53783 -113.68168 7019 ft 273 kts 98°
2026-04-28 22:12 49.53478 -113.65293 7029 ft 271 kts 98°
2026-04-28 22:12 49.53185 -113.62436 7042 ft 268 kts 97°
2026-04-28 22:12 49.52881 -113.59643 7032 ft 266 kts 98°
2026-04-28 22:12 49.52560 -113.56833 7043 ft 266 kts 98°
2026-04-28 22:13 49.52248 -113.54026 7039 ft 266 kts 98°
2026-04-28 22:13 49.52028 -113.51203 7034 ft 264 kts 85°
2026-04-28 22:13 49.52428 -113.48476 7038 ft 261 kts 70°
2026-04-28 22:13 49.53041 -113.45850 7026 ft 261 kts 66°
2026-04-28 22:14 49.53681 -113.43249 7033 ft 260 kts 68°
2026-04-28 22:14 49.54248 -113.40601 7047 ft 261 kts 70°
2026-04-28 22:14 49.54795 -113.37930 7004 ft 262 kts 69°
2026-04-28 22:14 49.55399 -113.35267 6894 ft 264 kts 68°
2026-04-28 22:15 49.55974 -113.32598 6815 ft 265 kts 70°
2026-04-28 22:15 49.56506 -113.29889 6796 ft 262 kts 70°
2026-04-28 22:15 49.56901 -113.27165 6751 ft 263 kts 82°
2026-04-28 22:15 49.56889 -113.24319 6706 ft 266 kts 95°
2026-04-28 22:16 49.56505 -113.21549 6730 ft 265 kts 108°
2026-04-28 22:16 49.55748 -113.18941 6625 ft 267 kts 124°
2026-04-28 22:16 49.54420 -113.16970 6560 ft 265 kts 141°
2026-04-28 22:16 49.53056 -113.15055 6514 ft 266 kts 137°
2026-04-28 22:17 49.51718 -113.13116 6345 ft 267 kts 137°
2026-04-28 22:17 49.50427 -113.11097 6185 ft 262 kts 133°
2026-04-28 22:17 49.49415 -113.08841 6037 ft 255 kts 110°
2026-04-28 22:17 49.49014 -113.06223 5887 ft 250 kts 100°
2026-04-28 22:18 49.48694 -113.03588 5735 ft 251 kts 99°
2026-04-28 22:18 49.48400 -113.00946 5594 ft 251 kts 98°
2026-04-28 22:18 49.48111 -112.98309 5412 ft 248 kts 98°
2026-04-28 22:18 49.47817 -112.95724 5305 ft 243 kts 98°
2026-04-28 22:19 49.47525 -112.93169 5156 ft 240 kts 98°
2026-04-28 22:19 49.47214 -112.90668 5007 ft 237 kts 97°
2026-04-28 22:19 49.46886 -112.88192 4840 ft 234 kts 99°
2026-04-28 22:19 49.46581 -112.85790 4680 ft 224 kts 97°
2026-04-28 22:20 49.46284 -112.83541 4562 ft 203 kts 98°
2026-04-28 22:20 49.46031 -112.81519 4530 ft 186 kts 97°
2026-04-28 22:20 49.45789 -112.79608 4489 ft 177 kts 97°
2026-04-28 22:20 49.45539 -112.77791 4503 ft 175 kts 97°
2026-04-28 22:21 49.45285 -112.75951 4518 ft 178 kts 97°
2026-04-28 22:21 49.45294 -112.74121 4502 ft 173 kts 63°
2026-04-28 22:21 49.45884 -112.72544 4525 ft 170 kts 52°
2026-04-28 22:21 49.46537 -112.71020 4518 ft 171 kts 50°
2026-04-28 22:22 49.47208 -112.69499 4533 ft 173 kts 49°
2026-04-28 22:22 49.47905 -112.67982 4547 ft 175 kts 49°
2026-04-28 22:22 49.48612 -112.66460 4506 ft 174 kts 50°
2026-04-28 22:22 49.49410 -112.65114 4531 ft 168 kts 25°
2026-04-28 22:23 49.50525 -112.65008 4504 ft 164 kts 339°
2026-04-28 22:23 49.51564 -112.65709 4509 ft 163 kts 335°
2026-04-28 22:23 49.52591 -112.66430 4507 ft 162 kts 335°
2026-04-28 22:23 49.53588 -112.67241 4520 ft 163 kts 328°
2026-04-28 22:24 49.54509 -112.68266 4513 ft 164 kts 323°
2026-04-28 22:24 49.55407 -112.69366 4508 ft 166 kts 321°
2026-04-28 22:24 49.56303 -112.70484 4487 ft 163 kts 321°
2026-04-28 22:24 49.57149 -112.71564 4474 ft 155 kts 320°
2026-04-28 22:25 49.57974 -112.72599 4300 ft 149 kts 322°
2026-04-28 22:25 49.58745 -112.73584 4089 ft 135 kts 320°
2026-04-28 22:25 49.59427 -112.74472 3896 ft 126 kts 322°
2026-04-28 22:25 49.60085 -112.75303 3705 ft 116 kts 320°
2026-04-28 22:26 49.60679 -112.76080 3501 ft 110 kts 320°
2026-04-28 22:26 49.61271 -112.76814 3349 ft 109 kts 319°
2026-04-28 22:26 49.61839 -112.77554 3234 ft 107 kts 317°
2026-04-28 22:26 49.62414 -112.78297 3087 ft 107 kts 318°
2026-04-28 22:27 49.62956 -112.79000 3025 ft 94 kts 319°
2026-04-28 22:27 49.63409 -112.79583 3018 ft 63 kts 320°
2026-04-28 22:27 49.63553 -112.79769 3017 ft 15 kts 321°
2026-04-28 22:27 49.63613 -112.79823 3018 ft 7 kts 341°
2026-04-28 22:28 49.63647 -112.79860 3021 ft 2 kts 253°
2026-04-28 22:28 49.63593 -112.79837 3017 ft 16 kts 139°
2026-04-28 22:28 49.63501 -112.79705 3019 ft 20 kts 136°
2026-04-28 22:28 49.63414 -112.79589 3018 ft 17 kts 138°
2026-04-28 22:29 49.63397 -112.79459 3022 ft 14 kts 43°
2026-04-28 22:29 49.63450 -112.79362 3017 ft 11 kts 52°
2026-04-28 22:29 49.63501 -112.79269 3020 ft 12 kts 49°
2026-04-28 22:29 49.63545 -112.79173 3017 ft 9 kts 82°
2026-04-28 22:30 49.63506 -112.79100 3017 ft 10 kts 141°
2026-04-28 22:30 49.63454 -112.79039 3017 ft 9 kts 145°
2026-04-28 22:30 49.63397 -112.78981 3017 ft 8 kts 146°
2026-04-28 22:30 49.63383 -112.78929 3017 ft 5 kts 95°
2026-04-28 22:31 49.63382 -112.78910 3017 ft 0 kts 96°
2026-04-28 22:31 49.63382 -112.78909 3017 ft 0 kts 96°